GOES
NORAD ID: 23581
Int'l Code: 1995-025A
Perigee: 36,173.3 km
Apogee: 36,248.1 km
Inclination: 8.5 °
Period: 1,457.4 minutes
Semi major axis: 42581 km
Launch date: May 23, 1995
Source: United States (US)
Two Line Element Set (TLE):
1 23581U 95025A 13142.96883221 -.00000160 00000-0 10000-3 0 8586
2 23581 008.5498 053.4557 0008785 016.3294 343.5574 00.98802723 65615
Source:
NASA's NSSDC Master Catalog entry for GOES 9